Location: Jaite
(41.2884°N, 81.5737°W)
Time: 20:21:03
(UTC+00:00)

STARLINK-76 - Pass Details

Date: 18 January 2020
Orbit: 528 x 531 km, 53.0° (Epoch: 16 February)

Event Time Altitude Azimuth Distance (km) Brightness Sun altitude
Exits shadow 11:19:50 - 213° (SSW) 2,568 6.8 -16.5°
Reaches altitude 10° 11:21:53 10° 207° (SSW) 1,767 6.1 -16.1°
Maximum altitude 11:25:41 44° 135° (SE) 743 4.7 -15.4°
Drops below altitude 10° 11:29:32 10° 63° (ENE) 1,780 6.9 -14.7°
Sets 11:31:49 0° 57° (ENE) 2,674 7.8 -14.3°
